Regional Weather Roundup
Issued by NWS

Home | Current Version | Previous Version | Text Only | Print | Product List | Glossary On
Versions: 1 2 3 4 5 6 7 8 9 10 11 12 13 14 15 16 17 18 19 20 21 22 23 24 25 26 27 28 29 30 31 32 33 34 35 36 37 38 39 40 41 42 43 44 45 46 47 48 49 50
000
ASUS43 KDMX 291403
RWRIA

WEATHER ROUNDUP FOR IOWA
NATIONAL WEATHER SERVICE DES MOINES IA
900 AM CDT FRI JUL 29 2016

NOTE: "FAIR" INDICATES FEW OR NO CLOUDS BELOW 12,000 FEET WITH NO
SIGNIFICANT WEATHER AND/OR OBSTRUCTIONS TO VISIBILITY.

* - THESE STATIONS ARE NOT NWS STATIONS...THUS NOT UNDER NWS
QUALITY CONTROL.  THEY ALSO DO NOT REPORT WEATHER SUCH
AS PRECIPITATION OR FOG.

IAZ001>003-012>014-020>022-031>034-043>046-291500-
   NORTHWEST IOWA

CITY           SKY/WX    TMP DP  RH WIND       PRES   REMARKS
CARROLL *      SUNNY     68  63  83 N9        30.05R
CHEROKEE *     MOSUNNY   64  62  92 CALM      30.08R
DENISON *      SUNNY     68  64  88 N9        30.05R
LE MARS *      MOSUNNY   66  61  82 VRB5      30.10R
SHELDON *      PTSUNNY   66  63  88 N6        30.08R
SIOUX CITY     SUNNY     72  62  71 CALM      30.07S
SPENCER        CLOUDY    65  60  84 N8        30.08R
STORM LAKE *   SUNNY     66  61  82 N8        30.08R
$$

IAZ055>058-069>071-079>083-090>094-291500-
   SOUTHWEST IOWA

CITY           SKY/WX    TMP DP  RH WIND       PRES   REMARKS
ATLANTIC *     CLOUDY    70  63  78 CALM      30.07R
CLARINDA *       N/A     68  64  88 MISG      30.08R
COUNCIL BLFS * MOSUNNY   66  63  88 S6        30.09R
CRESTON *      CLOUDY    66  63  88 N10       30.07S
HARLAN  *      MOSUNNY   68  63  83 NE3       30.11R
LAMONI         CLOUDY    65  64  97 NW9       30.03F
RED OAK *      CLOUDY    68  64  88 N5        30.07S
SHENANDOAH *   CLOUDY    68  68 100 N6        30.07S
$$

IAZ047>049-059>061-072>074-084-291500-
   CENTRAL IOWA

CITY           SKY/WX    TMP DP  RH WIND       PRES   REMARKS
AMES           CLOUDY    66  64  93 N10       30.01R
ANKENY *         N/A    N/A N/A N/A MISG        N/A
BOONE *        CLOUDY    66  63  88 N12       30.01S
CHARITON *       N/A    N/A N/A N/A MISG        N/A
DES MOINES     CLOUDY    68  61  78 N7        30.02R
GRINNELL*      CLOUDY    66  63  89 NW7       30.01R
KNOXVILLE *    CLOUDY    64  63  94 W7        30.01R
MARSHALLTOWN   CLOUDY    66  64  93 NW9       29.99R
NEWTON *       CLOUDY    64  64 100 NW5       30.00R
PELLA *        CLOUDY    65  63  93 NW6       30.02R
PERRY *        CLOUDY    66  64  93 NW6       30.04R
$$

IAZ004>006-015-016-023>025-035-036-291500-
   NORTH CENTRAL IOWA

CITY           SKY/WX    TMP DP  RH WIND       PRES   REMARKS
ALGONA *       CLOUDY    64  63  94 NE9       30.06R
ESTHERVILLE    CLOUDY    66  62  87 NE8       30.08R
FORT DODGE *   CLOUDY    63  61  94 N6        30.06R
MASON CITY     CLOUDY    64  62  93 N13       30.05R
FOREST CITY *  CLOUDY    63  63 100 N7        30.04S
IOWA FALLS *   CLOUDY    65  62  90 N9        30.03R
$$

IAZ007>011-017>019-026>030-037>042-050>054-066-291500-
   NORTHEAST IOWA

CITY           SKY/WX    TMP DP  RH WIND       PRES   REMARKS
CEDAR RAPIDS   CLOUDY    68  68 100 N5        29.96R
CHARLES CITY * CLOUDY    64  64 100 NE9G15    30.02R
CLINTON *      CLOUDY    70  68  93 E10       29.96R
DECORAH *      HVY RAIN  63  63 100 NE5G13    30.01S
DUBUQUE        CLOUDY    67  63  87 NE6       29.98R
MONTICELLO *   CLOUDY    68  64  88 NE7       29.97R
OELWEIN *      CLOUDY    66  64  94 NE9       30.00R
WATERLOO       CLOUDY    68  64  87 NE7       29.98R
$$

IAZ064-065-067-068-078-291500-
   EAST CENTRAL IOWA

CITY           SKY/WX    TMP DP  RH WIND       PRES   REMARKS
DAVENPORT      CLOUDY    70  68  93 NE6       29.96R FOG
IOWA CITY      CLOUDY    71  66  84 NW3       29.98R
MT. PLEASANT * CLOUDY    70  69  97 W5        29.98R
MUSCATINE *    CLOUDY    70  66  88 W6        29.97R
QUAD CITIES    CLOUDY    75  68  78 W3        29.94R
$$

IAZ062-063-075>077-085>089-095>099-291500-
   SOUTHEAST IOWA

CITY           SKY/WX    TMP DP  RH WIND       PRES   REMARKS
BURLINGTON     CLOUDY    68  66  93 W6        29.97R
FAIRFIELD *    CLOUDY    66  64  94 W5        29.99R
KEOKUK *       CLOUDY    68  66  94 NW6       29.98R
OSKALOOSA *    CLOUDY    65  64  96 W7        30.01
CENTERVILLE *  LGT RAIN  64  64 100 CALM      30.02F
OTTUMWA        CLOUDY    66  63  90 W8        30.00R
WASHINGTON *   CLOUDY    68  66  94 NW6       29.99R
$$

ABBREVIATIONS USED IN REMARKS
   TC - TEMPERATURES IN CELSIUS
  WCI - WIND CHILL INDEX
   HX - HEAT INDEX
  VSB - VISIBILITY
$$





USA.gov is the U.S. government's official web portal to all federal, state and local government web resources and services.